Weather History for Chicopee, MA

Change the Weather History Date:

Sunday, April 29, 2012

  Actual Average Record
Temperature  
Mean Temperature 42 °F -  
Max Temperature 59 °F 63 °F 77 °F (2003)
Min Temperature 25 °F 41 °F 25 °F (2012)
Degree Days  
Heating Degree Days 23    
Moisture  
Dew Point 15 °F    
Average Humidity 33    
Maximum Humidity 84    
Minimum Humidity 15    
Precipitation  
Precipitation 0.00 in - - ()
Sea Level Pressure  
Sea Level Pressure 30.11 in    
Wind  
Wind Speed 8 mph (NW)    
Max Wind Speed 24 mph    
Max Gust Speed 33 mph    
Visibility 10 miles    
Events      
Averages and records for this station are not official NWS values.
T = Trace of Precipitation, MM = Missing Value Source: NWS Daily Summary

Daily Weather History Graph

Daily Weather History Graph

Search for Another Location

Airport:

Trip Planner

Search our weather history database for the weather conditions in past years. The results will help you decide how hot, cold, wet, or windy it might be!

Date:

Astronomy

Apr. 29, 2012 Rise Set
Actual Time 5:47 AM EDT 7:47 PM EDT
Civil Twilight 5:17 AM EDT 8:18 PM EDT
Nautical Twilight 4:40 AM EDT 8:55 PM EDT
Astronomical Twilight 3:59 AM EDT 9:36 PM EDT
Moon 12:29 PM EDT (4/29) 1:44 AM EDT (4/29)
Length of Visible Light 15h 00m
Length of Day
13h 59m
First Quarter, 53% of the Moon is Illuminated
Apr 29
First Quarter
May 5
Full
May 12
Last Quarter
May 20
New
May 28
First Quarter

Hourly Weather History & Observations

Time (EDT) Temp. Windchill Dew Point Humidity Pressure Visibility Wind Dir Wind Speed Gust Speed Precip Events Conditions
12:55 AM 42.6 °F 37.8 °F 16.0 °F 34% 30.12 in 10.0 mi NW 8.1 mph - N/A   Scattered Clouds
1:55 AM 37.2 °F - 19.0 °F 48% 30.11 in 10.0 mi Calm Calm - N/A   Clear
2:55 AM 34.9 °F 29.9 °F 17.6 °F 49% 30.10 in 10.0 mi NW 5.8 mph - N/A   Partly Cloudy
3:55 AM 33.1 °F - 21.9 °F 64% 30.11 in 10.0 mi Calm Calm - N/A   Partly Cloudy
4:55 AM 27.9 °F - 22.3 °F 80% 30.12 in 10.0 mi Calm Calm - N/A   Clear
5:55 AM 25.9 °F - 20.7 °F 81% 30.13 in 10.0 mi Calm Calm - N/A   Clear
6:55 AM 30.2 °F - 25.9 °F 84% 30.14 in 10.0 mi Calm Calm - N/A   Clear
7:55 AM 41.0 °F 37.1 °F 19.2 °F 42% 30.15 in 10.0 mi SSW 5.8 mph - N/A   Clear
8:55 AM 46.2 °F 42.2 °F 17.4 °F 32% 30.14 in 10.0 mi West 8.1 mph - N/A   Clear
9:55 AM 48.2 °F - 14.9 °F 26% 30.13 in 10.0 mi West 11.5 mph - N/A   Clear
10:55 AM 52.5 °F - 13.3 °F 21% 30.10 in 10.0 mi NNW 11.5 mph 24.2 mph N/A   Clear
11:24 AM 53.6 °F - 12.2 °F 19% 30.09 in 10.0 mi West 12.7 mph - N/A   Clear
11:55 AM 54.9 °F - 11.5 °F 18% 30.08 in 10.0 mi WNW 17.3 mph 25.3 mph N/A   Clear
12:00 PM 55.4 °F - 12.2 °F 18% 30.08 in 10.0 mi WNW 18.4 mph 24.2 mph N/A   Clear
12:55 PM 56.5 °F - 13.6 °F 18% 30.07 in 10.0 mi NW 16.1 mph 28.8 mph N/A   Clear
1:55 PM 57.0 °F - 16.0 °F 20% 30.06 in 10.0 mi NW 13.8 mph 25.3 mph N/A   Clear
2:55 PM 58.6 °F - 16.5 °F 19% 30.04 in 10.0 mi WNW 17.3 mph 33.4 mph N/A   Partly Cloudy
3:55 PM 58.6 °F - 16.7 °F 19% 30.03 in 10.0 mi NW 15.0 mph 23.0 mph N/A   Scattered Clouds
4:55 PM 59.2 °F - 13.8 °F 17% 30.04 in 10.0 mi WNW 24.2 mph 29.9 mph N/A   Clear
5:55 PM 57.7 °F - 10.2 °F 15% 30.06 in 10.0 mi NNW 12.7 mph - N/A   Clear
6:55 PM 55.0 °F - 7.2 °F 15% 30.08 in 10.0 mi NNW 16.1 mph 24.2 mph N/A   Clear
7:55 PM 51.6 °F - 8.8 °F 18% 30.12 in 10.0 mi NNW 12.7 mph 20.7 mph N/A   Clear
8:55 PM 48.7 °F - 10.4 °F 21% 30.17 in 10.0 mi NNW 8.1 mph - N/A   Clear
9:55 PM 46.8 °F - 10.6 °F 23% 30.20 in 10.0 mi NNW 5.8 mph - N/A   Clear
10:55 PM 44.8 °F 40.4 °F 12.0 °F 27% 30.21 in 10.0 mi NNW 8.1 mph - N/A   Clear
11:55 PM 43.5 °F 39.4 °F 12.9 °F 29% 30.23 in 10.0 mi NW 6.9 mph - N/A   Clear